Location: Kings Park
(40.8862°N, 73.2573°W)
Time: 05:33:50
(UTC+00:00)

In-Cosmos 22 Rocket - Pass Details

Date: 29 October 2020
Orbit: 790 x 888 km, 81.2° (Epoch: 27 November)

Event Time Altitude Azimuth Distance (km) Brightness Sun altitude
Rises 22:39:24 0° 354° (N) 3,315 7.3 -9.5°
Reaches altitude 10° 22:41:49 10° 357° (N) 2,390 6.5 -10.0°
Maximum altitude 22:47:09 61° 78° (ENE) 922 4.1 -11.0°
Drops below altitude 10° 22:52:34 10° 159° (SSE) 2,430 6.5 -12.0°
Sets 22:55:02 0° 163° (SSE) 3,376 7.2 -12.4°
